Location: Newark
(25.6108°S, 54.5803°W)
Time: 09:48:25
(UTC+00:00)

deb Explorer IX - Pass Details

Date: 31 October 2020
Orbit: 538 x 1104 km, 38.8° (Epoch: 23 November)

Event Time Altitude Azimuth Distance (km) Brightness Sun altitude
Rises 01:52:12 0° 240° (WSW) 2,794 ? -44.6°
Enters shadow 01:52:17 - 240° (WSW) 2,760 ? -44.6°
Reaches altitude 10° 01:54:33 10° 242° (WSW) 1,848 - -44.8°
Maximum altitude 01:58:42 76° 326° (NNW) 561 - -45.3°
Drops below altitude 10° 02:02:45 10° 52° (NE) 1,798 - -45.8°
Sets 02:05:00 0° 54° (NE) 2,709 - -46.0°
